Location: Beaurecueil
(43.5122°N, 5.5450°E)
Time: 01:26:39
(UTC+00:00)

Cosmos 1939 Rocket - Pass Details

Date: 18 September 2020
Orbit: 531 x 586 km, 97.4° (Epoch: 26 October)

Event Time Altitude Azimuth Distance (km) Brightness Sun altitude
Rises 18:05:30 0° 175° (S) 2,777 6.3 -5.1°
Reaches altitude 10° 18:07:39 10° 179° (S) 1,889 5.5 -5.5°
Maximum altitude 18:11:42 59° 260° (W) 677 3.7 -6.2°
Drops below altitude 10° 18:15:50 10° 340° (NNW) 1,918 6.0 -6.9°
Sets 18:18:02 0° 345° (NNW) 2,824 6.8 -7.3°
